Location: Home
(42.5358°N, 72.7383°W)
Time: 11:58:05
(UTC-05:00)

Courier 1B - Pass Details

Date: 03 December 2021
Orbit: 962 x 1209 km, 28.3° (Epoch: 23 January)

Event Time Altitude Azimuth Distance (km) Brightness Sun altitude
Rises 18:34:55 0° 247° (WSW) 3,961 11.9 -24.5°
Reaches altitude 10° 18:38:17 10° 235° (SW) 2,958 10.8 -25.1°
Maximum altitude 18:43:56 25° 183° (S) 1,998 9.2 -26.1°
Enters shadow 18:46:21 21° 154° (SSE) 2,173 9.1 -26.6°
